Location: Arlanza
(33.9428°N, 117.4656°W)
Time: 04:38:55
(UTC+00:00)

Daily predictions for brighter satellites

Satellite Brightness Start Highest point End
(mag) Time Altitude Azimuth Time Altitude Azimuth Time Altitude Azimuth
BREEZE-M R/B 3.3 00:52:53 10° NW 00:56:31 90° N 01:05:43 10° SE
Cosmos 1939 Rocket 3.0 01:00:43 10° SSE 01:04:44 55° ENE 01:08:46 10° N
Nadezhda 4 Rocket 4.1 00:58:29 10° N 01:04:50 85° E 01:11:10 10° S
Cosmos 1812 4.0 01:03:44 10° SE 01:06:41 21° E 01:09:37 10° NE
USA 276 3.5 01:08:11 10° NNW 01:10:41 21° NNE 01:13:11 10° E
CZ-4C R/B 4.1 01:08:18 10° N 01:13:37 20° NE 01:19:24 10° E
ATLAS CENTAUR R/B 4.5 01:01:35 10° SW 01:14:15 48° NW 01:19:27 10° NNE
H-2A R/B 2.7 01:09:52 10° SE 01:14:27 32° ENE 01:18:57 10° N
COSMO-SKYMED 1 3.5 01:13:53 10° NE 01:17:41 29° E 01:21:28 10° SSE
Cosmos 1092 Rocket 4.0 01:13:44 10° N 01:20:03 64° E 01:26:17 10° SSE
FengYun 1-2 T 4.4 01:15:56 10° SSE 01:21:32 85° WSW 01:27:07 10° NNW
Cosmos 1656 4.0 01:16:45 10° NNW 01:22:19 75° WSW 01:27:54 10° SSE
Cosmos 1633 Rocket 4.3 01:24:26 10° NNE 01:27:39 20° ENE 01:30:52 10° ESE
Cosmos 1602 3.6 01:25:23 10° N 01:29:14 67° E 01:33:04 10° SSE
Cosmos 841 Rocket 3.5 01:24:55 10° SSW 01:30:05 85° WNW 01:35:16 10° NNE
Cosmos 1782 2.8 01:26:12 10° S 01:30:11 88° E 01:34:12 10° N
Aurora 2 Rocket 4.5 01:28:20 10° WSW 01:32:34 31° S 01:38:18 10° ESE
Okean O Rocket 2.6 01:30:11 10° SE 01:33:47 25° ENE 01:37:24 10° NNE
Cosmos 1697 Rocket 2.6 01:29:39 10° NNW 01:35:15 66° ENE 01:40:49 10° SSE
Cosmos 1151 Rocket 3.2 01:32:20 10° SSE 01:36:28 49° E 01:40:40 10° NNE
Cosmos 1980 Rocket 2.7 01:34:06 10° N 01:39:14 34° ENE 01:44:18 10° SE
Cosmos 2369 4.0 01:34:10 10° N 01:39:39 45° ENE 01:45:05 10° SE
Cosmos 1937 Rocket 3.5 01:35:01 10° N 01:40:17 63° ENE 01:45:31 10° SSE
NOAA 6 4.4 01:35:42 10° S 01:40:49 68° WSW 01:45:56 10° NNW
Cosmos 1627 Rocket 4.4 01:34:48 10° N 01:40:58 80° E 01:47:04 10° S
Cosmos 2279 Rocket 4.0 01:34:58 10° S 01:41:04 60° E 01:47:09 10° NNE
CZ-2D R/B 3.1 01:40:27 10° SSE 01:44:16 75° ENE 01:48:06 10° N
Cosmos 2082 Rocket 2.5 01:40:57 10° SSW 01:46:37 72° WNW 01:52:18 10° NNE
CZ-2C R/B 2.2 01:47:51 10° SW 01:51:47 37° SSE 01:53:47 22° ESE
Cosmos 1328 Rocket 3.7 01:47:33 10° S 01:51:51 52° E 01:56:10 10° NNE
CZ-4B DEB 4.5 01:47:15 10° S 01:52:45 73° WSW 01:58:15 10° NNW
Cosmos 1666 Rocket 3.7 01:48:41 10° N 01:52:59 48° E 01:57:12 10° SSE
Cosmos 372 Rocket 4.1 01:48:23 10° N 01:53:29 51° ENE 01:58:34 10° SE
Meteor 2-21 4.4 01:51:04 10° N 01:57:10 86° W 02:03:11 10° S
Cosmos 1500 3.4 01:58:12 10° NNW 02:01:55 70° W 02:05:36 10° S
Cosmos 2278 4.1 01:58:38 10° N 02:03:57 39° ENE 02:09:13 10° SE
SKYMED 2 3.8 02:01:30 10° N 02:05:49 71° WNW 02:10:06 10° SSW
Landsat 5 3.2 02:03:11 13° NNE 02:06:50 81° ESE 02:10:45 10° S
ARGOS 3.1 02:01:58 10° SSE 02:07:18 63° ENE 02:12:38 10° N
SL-08 RB Rocket 4.0 02:06:02 10° SE 02:10:25 44° ENE 02:14:49 10° N
ATLAS 5 CENTAUR R/B 4.0 02:08:41 10° SW 02:12:58 13° S 02:15:43 10° SSE
COSMOS 2455 4.2 02:07:45 10° WSW 02:13:11 35° WNW 02:18:40 10° N
Meteor 2-6 Rocket 4.3 02:11:36 10° S 02:17:27 86° W 02:23:09 10° N
Meteor 2-15 4.3 02:12:12 10° S 02:18:17 75° E 02:24:23 10° N
GPS 2-04 Rocket1 2.6 02:16:22 10° WNW 02:20:30 80° N 02:21:03 64° ENE
DEBRIS 2.3 02:20:23 10° SW 02:22:35 79° NW 02:22:37 78° NNW
USA 229 DEB 4.4 02:15:14 10° NW 02:22:41 64° WSW 02:30:28 10° SSE
USA 229 4.4 02:15:19 10° NW 02:22:47 64° WSW 02:30:34 10° SSE
DMSP B5D2-2 4.0 02:21:26 32° NE 02:23:42 58° E 02:28:50 10° S
H-2A R/B 3.8 02:26:39 20° SSE 02:26:39 20° SSE 02:28:22 10° SSE
Cosmos 1655 Rocket 4.1 02:19:31 10° N 02:25:46 54° E 02:31:57 10° SSE
CZ-4C R/B 3.0 02:25:26 61° NNW 02:25:48 68° WNW 02:29:07 10° SSW
CZ-4B R/B 3.4 02:20:42 10° S 02:26:08 69° WSW 02:31:30 10° NNW
deb Chang Zheng 4 4.0 02:24:25 10° S 02:28:39 61° WSW 02:32:55 10° NNW
USA 234 3.3 02:24:06 10° SE 02:30:39 79° SW 02:37:12 10° NW
Cosmos 1666 3.3 02:27:51 10° NNW 02:31:30 55° W 02:35:06 10° S
Cosmos 1515 Rocket 3.4 02:28:47 10° S 02:33:14 84° E 02:34:03 59° NNE
NOSS 3-3 (A) 4.4 02:29:50 10° S 02:33:54 34° SE 02:33:54 34° SE
NOSS 3-3 (C) 4.5 02:29:56 10° S 02:33:58 34° SE 02:33:58 34° SE
CZ-2C R/B 3.8 02:30:14 10° N 02:35:00 39° WNW 02:39:46 10° SW
Meteor 1-10 Rocket 4.3 02:31:02 10° S 02:36:52 81° W 02:41:51 14° N
X-37B 2.8 02:36:37 10° SW 02:37:48 22° SW 02:37:48 22° SW
USA 276 4.4 02:43:57 10° WNW 02:45:51 25° WSW 02:45:51 25° WSW
Cosmos 836 Rocket 4.3 02:41:58 10° S 02:47:13 77° ESE 02:47:13 77° ESE
Feng Yun 1-1 Rocket 4.3 02:42:43 10° SSE 02:48:39 88° WSW 02:54:34 10° NNW
Cosmos 1867 3.7 02:46:44 10° SSW 02:51:23 59° SSE 02:51:23 59° SSE
H-2A R/B 4.3 02:49:36 10° SSW 02:53:49 25° W 02:57:59 10° NW
APEX 4.3 02:50:24 10° SW 02:54:07 45° W 02:54:07 45° W
Cosmos 921 Rocket 4.5 02:56:42 10° SW 03:00:28 32° WNW 03:01:06 31° NW
CZ-4C R/B 3.0 02:55:22 10° NNW 03:03:08 84° ENE 03:07:13 36° SE
USA 32 4.3 03:00:51 10° SSW 03:06:01 64° W 03:06:22 62° WNW
Okean O Rocket 3.9 03:06:24 10° SSW 03:10:00 24° W 03:13:37 10° NW
Cosmos 1980 Rocket 4.1 03:18:22 10° NW 03:23:00 27° WSW 03:27:36 10° SSW
CZ-2C R/B 4.1 03:27:03 10° W 03:27:57 16° W 03:27:57 16° W
ATLAS 3B CENTAUR R/B 4.2 03:44:23 10° W 04:03:13 69° S 04:04:12 67° SSE
Cosmos 2369 Rocket 3.3 11:47:55 41° E 11:47:55 41° E 11:52:57 10° NE
